Location: Bonnesvalyn
(49.1218°N, 3.3177°E)
Time: 15:19:20
(UTC+00:00)

Cosmos 2074 Rocket - Visible Passes

Search period start: 30 September 2023 00:00
Search period end: 10 October 2023 00:00
Orbit: 966 x 986 km, 82.9° (Epoch: 30 September)

Date Brightness Start Highest point End Pass type
(mag) Time Alt. Az. Time Alt. Az. Time Alt. Az.
30 Sep 7.3 04:04:10 10° E 04:06:43 13° ENE 04:09:16 10° NE visible
30 Sep 6.9 18:22:41 10° NW 18:27:13 21° W 18:31:45 10° SW visible
01 Oct 6.7 04:27:13 10° SE 04:31:50 22° E 04:36:28 10° NNE visible
01 Oct 7.4 18:50:03 10° NW 18:52:19 12° WNW 18:54:35 10° W visible
02 Oct 5.7 04:51:31 10° SSE 04:57:08 38° E 05:02:47 10° NNE visible
03 Oct 7.3 03:36:56 10° E 03:38:28 11° ENE 03:40:01 10° ENE visible
03 Oct 4.6 05:16:30 10° S 05:22:36 64° E 05:28:44 10° NNE visible
03 Oct 6.7 17:54:04 10° NNW 17:58:56 24° W 18:03:47 10° SW visible
04 Oct 6.7 03:59:17 10° SE 04:03:33 20° E 04:07:49 10° NE visible
04 Oct 7.2 18:21:02 10° NW 18:24:05 14° WNW 18:27:08 10° WSW visible
05 Oct 5.9 04:23:22 10° SSE 04:28:48 33° E 04:34:16 10° NNE visible
06 Oct 4.8 04:48:12 10° SSE 04:54:13 56° E 05:00:18 10° NNE visible
07 Oct 6.8 03:31:26 10° ESE 03:35:17 17° ENE 03:39:09 10° NE visible
07 Oct 4.0 05:13:36 10° S 05:19:49 87° W 05:26:05 10° N visible
07 Oct 7.0 17:52:12 10° NW 17:55:50 16° WNW 17:59:28 10° WSW visible
08 Oct 6.0 03:55:16 10° SE 04:00:29 30° E 04:05:44 10° NNE visible
09 Oct 5.0 04:19:57 10° SSE 04:25:52 50° E 04:31:51 10° NNE visible
